Terug naar catalogus

STARLINK-35428

ActiefCommunicatieVLEO
NORAD 66115·PAYLOAD·🇺🇸 United States

Gelanceerd Oct 22, 2025 vanaf Vandenberg Space Force Base

Loading…

Volgende Passages (komende 24 uur)

TLE

VersSource: CelesTrak SupGP

Epoch: Sep 15, 2026, 03:15 UTC

1 66115C 25237B   26258.13590278 -.00047205  00000+0 -13946-2 0  2588
2 66115  53.1582 238.4726 0001291  86.1601 232.4318 15.34415387    17

Volg STARLINK-35428 in realtime met AllMySat

Download on the App Store